| time (UTC) | temp F | wind direction | speed MPH | gust MPH | rain 1hr in | rain 24hr in | rain mn in | humidity % | barometer mb |
| 20260509173025 | 62 | 247 | 3.0 | 14.0 | 0.00 | 0.00 | 0.00 | 72 | 1006.3 |
| 20260509171525 | 61 | 254 | 6.0 | 12.0 | 0.00 | 0.00 | 0.00 | 70 | 1006.4 |
| 20260509170122 | 60 | 215 | 2.0 | 15.0 | 0.00 | 0.00 | 0.00 | 73 | 1006.6 |
| 20260509164520 | 61 | 243 | 6.0 | 17.0 | 0.00 | 0.00 | 0.00 | 71 | 1006.6 |
| 20260509163020 | 60 | 216 | 4.0 | 10.0 | 0.00 | 0.00 | 0.00 | 73 | 1007.0 |
| 20260509161516 | 60 | 263 | 5.0 | 10.0 | 0.00 | 0.00 | 0.00 | 74 | 1007.1 |
| 20260509160014 | 60 | 212 | 4.0 | 14.0 | 0.00 | 0.00 | 0.00 | 74 | 1007.1 |
| 20260509154510 | 59 | 217 | 3.0 | 10.0 | 0.00 | 0.00 | 0.00 | 75 | 1007.3 |
| 20260509153011 | 58 | 160 | 3.0 | 7.0 | 0.00 | 0.00 | 0.00 | 77 | 1007.3 |
| 20260509151505 | 58 | 231 | 3.0 | 7.0 | 0.00 | 0.00 | 0.00 | 78 | 1007.5 |
| 20260509150002 | 57 | 238 | 3.0 | 9.0 | 0.00 | 0.00 | 0.00 | 78 | 1007.5 |
| 20260509144507 | 57 | 213 | 1.0 | 8.0 | 0.00 | 0.00 | 0.00 | 79 | 1007.5 |
| 20260509143102 | 57 | 233 | 3.0 | 8.0 | 0.00 | 0.00 | 0.00 | 79 | 1007.6 |
| 20260509141558 | 56 | 185 | 4.0 | 11.0 | 0.00 | 0.00 | 0.00 | 81 | 1007.7 |
| 20260509140154 | 56 | 234 | 3.0 | 10.0 | 0.00 | 0.00 | 0.00 | 83 | 1007.8 |
| 20260509134554 | 56 | 229 | 2.0 | 7.0 | 0.00 | 0.00 | 0.00 | 83 | 1007.9 |
| 20260509133058 | 56 | 178 | 2.0 | 9.0 | 0.00 | 0.00 | 0.00 | 84 | 1008.0 |
| 20260509131556 | 55 | 221 | 1.0 | 7.0 | 0.00 | 0.00 | 0.00 | 85 | 1007.9 |
| 20260509130050 | 54 | 127 | 5.0 | 9.0 | 0.00 | 0.00 | 0.00 | 86 | 1007.9 |
| 20260509124543 | 53 | 150 | 2.0 | 7.0 | 0.00 | 0.00 | 0.00 | 88 | 1007.9 |
| 20260509123038 | 51 | 169 | 2.0 | 7.0 | 0.00 | 0.00 | 0.00 | 89 | 1008.1 |
| 20260509121548 | 50 | 167 | 2.0 | 7.0 | 0.00 | 0.00 | 0.00 | 90 | 1008.3 |
| 20260509120034 | 48 | 166 | 2.0 | 5.0 | 0.00 | 0.00 | 0.00 | 92 | 1008.4 |
| 20260509114526 | 47 | 170 | 1.0 | 5.0 | 0.00 | 0.08 | 0.00 | 94 | 1008.4 |
| 20260509113120 | 45 | 154 | 1.0 | 5.0 | 0.00 | 0.08 | 0.00 | 95 | 1008.2 |
| 20260509111515 | 44 | 161 | 1.0 | 3.0 | 0.00 | 0.08 | 0.00 | 95 | 1008.4 |
| 20260509110011 | 42 | 203 | 0.0 | 1.0 | 0.00 | 0.12 | 0.00 | 94 | 1008.4 |
| 20260509104508 | 40 | 203 | 0.0 | 0.0 | 0.00 | 0.12 | 0.00 | 94 | 1008.6 |
| 20260509103004 | 40 | 203 | 0.0 | 0.0 | 0.00 | 0.12 | 0.00 | 93 | 1008.6 |
| 20260509101502 | 40 | 203 | 0.0 | 0.0 | 0.00 | 0.12 | 0.00 | 93 | 1008.4 |
| 20260509100103 | 40 | 203 | 0.0 | 0.0 | 0.00 | 0.12 | 0.00 | 93 | 1008.4 |
| 20260509094559 | 40 | 203 | 0.0 | 0.0 | 0.00 | 0.12 | 0.00 | 92 | 1008.5 |
| 20260509093059 | 39 | 203 | 0.0 | 0.0 | 0.00 | 0.12 | 0.00 | 92 | 1008.5 |
| 20260509091558 | 39 | 203 | 0.0 | 0.0 | 0.00 | 0.12 | 0.00 | 92 | 1008.4 |
| 20260509090106 | 39 | 203 | 0.0 | 0.0 | 0.00 | 0.12 | 0.00 | 92 | 1008.5 |
| 20260509084600 | 39 | 203 | 0.0 | 0.0 | 0.00 | 0.12 | 0.00 | 92 | 1008.6 |
| 20260509083059 | 39 | 203 | 0.0 | 1.0 | 0.00 | 0.12 | 0.00 | 93 | 1008.7 |
| 20260509081554 | 38 | 203 | 0.0 | 2.0 | 0.00 | 0.12 | 0.00 | 93 | 1008.7 |
| 20260509080059 | 38 | 205 | 0.0 | 0.0 | 0.00 | 0.12 | 0.00 | 93 | 1008.8 |
| 20260509074551 | 38 | 205 | 0.0 | 0.0 | 0.00 | 0.12 | 0.00 | 92 | 1008.9 |
| 20260509073050 | 37 | 205 | 0.0 | 0.0 | 0.00 | 0.12 | 0.00 | 92 | 1009.0 |
| 20260509071549 | 37 | 205 | 0.0 | 0.0 | 0.00 | 0.12 | 0.00 | 92 | 1009.2 |
| 20260509070047 | 37 | 205 | 0.0 | 0.0 | 0.00 | 0.12 | 0.00 | 91 | 1009.1 |
| 20260509064546 | 38 | 205 | 0.0 | 0.0 | 0.00 | 0.12 | 0.00 | 91 | 1009.3 |
| 20260509063043 | 38 | 205 | 0.0 | 0.0 | 0.00 | 0.12 | 0.00 | 91 | 1009.3 |
| 20260509061545 | 38 | 205 | 0.0 | 0.0 | 0.00 | 0.12 | 0.00 | 91 | 1009.7 |
| 20260509060042 | 38 | 205 | 0.0 | 0.0 | 0.00 | 0.12 | 0.00 | 90 | 1010.0 |
| 20260509054539 | 38 | 205 | 0.0 | 0.0 | 0.00 | 0.12 | 0.00 | 90 | 1010.2 |
| 20260509053053 | 38 | 205 | 0.0 | 0.0 | 0.00 | 0.12 | 0.00 | 90 | 1010.2 |
| 20260509051533 | 39 | 205 | 0.0 | 0.0 | 0.00 | 0.12 | 0.00 | 90 | 1010.2 |
| 20260509050032 | 39 | 205 | 0.0 | 0.0 | 0.00 | 0.12 | 0.00 | 90 | 1010.5 |
| 20260509044529 | 39 | 205 | 0.0 | 0.0 | 0.00 | 0.12 | 0.00 | 90 | 1010.7 |
| 20260509043027 | 39 | 205 | 0.0 | 0.0 | 0.00 | 0.12 | 0.00 | 89 | 1010.9 |
| 20260509041535 | 39 | 205 | 0.0 | 0.0 | 0.00 | 0.12 | 0.00 | 88 | 1011.0 |
| 20260509040022 | 40 | 205 | 0.0 | 0.0 | 0.00 | 0.13 | 0.12 | 86 | 1011.0 |
| 20260509034522 | 40 | 205 | 0.0 | 0.0 | 0.00 | 0.13 | 0.12 | 85 | 1011.1 |
| 20260509033021 | 41 | 205 | 0.0 | 0.0 | 0.00 | 0.13 | 0.12 | 83 | 1011.2 |
| 20260509031521 | 42 | 205 | 0.0 | 0.0 | 0.00 | 0.13 | 0.12 | 80 | 1011.4 |
| 20260509030021 | 42 | 205 | 0.0 | 2.0 | 0.00 | 0.14 | 0.12 | 77 | 1011.4 |
| 20260509024520 | 43 | 205 | 0.0 | 0.0 | 0.00 | 0.14 | 0.12 | 73 | 1011.4 |
| 20260509023019 | 43 | 205 | 0.0 | 3.0 | 0.00 | 0.14 | 0.12 | 72 | 1011.5 |
| 20260509021520 | 42 | 228 | 1.0 | 4.0 | 0.00 | 0.14 | 0.12 | 76 | 1011.4 |
| 20260509020022 | 43 | 225 | 0.0 | 0.0 | 0.00 | 0.19 | 0.12 | 73 | 1011.4 |
| 20260509014519 | 44 | 225 | 0.0 | 0.0 | 0.00 | 0.19 | 0.12 | 71 | 1011.2 |
| 20260509013018 | 45 | 225 | 0.0 | 0.0 | 0.00 | 0.19 | 0.12 | 67 | 1011.1 |
| 20260509011524 | 46 | 225 | 0.0 | 0.0 | 0.00 | 0.19 | 0.12 | 67 | 1011.1 |
| 20260509010034 | 47 | 225 | 0.0 | 2.0 | 0.00 | 0.26 | 0.12 | 62 | 1011.1 |
| 20260509004525 | 48 | 225 | 0.0 | 0.0 | 0.00 | 0.26 | 0.12 | 57 | 1011.1 |
| 20260509003017 | 50 | 225 | 0.0 | 0.0 | 0.00 | 0.26 | 0.12 | 54 | 1011.0 |
| 20260509001516 | 52 | 234 | 0.0 | 2.0 | 0.00 | 0.26 | 0.12 | 49 | 1010.8 |
| 20260509000017 | 53 | 202 | 0.0 | 4.0 | 0.00 | 0.38 | 0.12 | 45 | 1010.7 |
| 20260508234522 | 53 | 202 | 1.0 | 5.0 | 0.00 | 0.38 | 0.12 | 44 | 1010.8 |
| 20260508233015 | 54 | 208 | 1.0 | 6.0 | 0.00 | 0.38 | 0.12 | 44 | 1010.8 |
| 20260508231513 | 54 | 194 | 2.0 | 8.0 | 0.00 | 0.38 | 0.12 | 45 | 1010.7 |
| 20260508230023 | 55 | 207 | 0.0 | 7.0 | 0.00 | 0.38 | 0.12 | 45 | 1010.7 |
| 20260508224515 | 55 | 215 | 2.0 | 8.0 | 0.00 | 0.38 | 0.12 | 46 | 1010.8 |
| 20260508223010 | 55 | 205 | 1.0 | 8.0 | 0.00 | 0.38 | 0.12 | 46 | 1010.8 |
| 20260508221525 | 55 | 245 | 1.0 | 7.0 | 0.00 | 0.38 | 0.12 | 46 | 1010.8 |
| 20260508220008 | 56 | 225 | 3.0 | 10.0 | 0.00 | 0.38 | 0.12 | 46 | 1010.9 |
| 20260508214508 | 55 | 243 | 1.0 | 4.0 | 0.00 | 0.38 | 0.12 | 47 | 1010.8 |
| 20260508213015 | 56 | 232 | 2.0 | 6.0 | 0.00 | 0.38 | 0.12 | 44 | 1010.8 |
| 20260508211508 | 56 | 248 | 0.0 | 4.0 | 0.00 | 0.38 | 0.12 | 45 | 1010.8 |
| 20260508210005 | 56 | 285 | 1.0 | 12.0 | 0.00 | 0.38 | 0.12 | 44 | 1010.8 |
| 20260508204510 | 57 | 277 | 5.0 | 10.0 | 0.00 | 0.38 | 0.12 | 42 | 1010.9 |
| 20260508203006 | 56 | 305 | 1.0 | 9.0 | 0.00 | 0.38 | 0.12 | 46 | 1011.0 |
| 20260508201500 | 56 | 248 | 1.0 | 8.0 | 0.00 | 0.38 | 0.12 | 51 | 1011.2 |
| 20260508194557 | 54 | 25 | 1.0 | 4.0 | 0.00 | 0.38 | 0.12 | 57 | 1011.5 |
| 20260508193102 | 54 | 193 | 0.0 | 6.0 | 0.00 | 0.38 | 0.12 | 59 | 1011.8 |
| 20260508191557 | 55 | 186 | 3.0 | 8.0 | 0.00 | 0.38 | 0.12 | 57 | 1012.1 |
| 20260508190053 | 54 | 85 | 1.0 | 6.0 | 0.00 | 0.38 | 0.12 | 55 | 1012.2 |
| 20260508184551 | 55 | 209 | 3.0 | 7.0 | 0.00 | 0.38 | 0.12 | 56 | 1012.2 |
| 20260508183052 | 55 | 211 | 3.0 | 8.0 | 0.00 | 0.38 | 0.12 | 56 | 1012.3 |
| 20260508181548 | 54 | 290 | 1.0 | 5.0 | 0.00 | 0.38 | 0.12 | 56 | 1012.3 |
| 20260508180046 | 54 | 300 | 1.0 | 9.0 | 0.00 | 0.38 | 0.12 | 55 | 1012.4 |
| 20260508174544 | 53 | 114 | 2.0 | 10.0 | 0.00 | 0.38 | 0.12 | 55 | 1012.5 |